Time,TemperatureF,DewpointF,PressureIn,WindDirection,WindDirectionDegrees,WindSpeedMPH,WindSpeedGustMPH,Humidity,HourlyPrecipIn,Conditions,Clouds,dailyrainin,SolarRadiationWatts/m^2,SoftwareType,DateUTC
2013-02-12 00:04:00,75.4,65.0,30.09,East,101,13.0,17.0,70,0.00,,,0.00,0,weatherlink.com 1.10,2013-02-12 04:04:00,
2013-02-12 00:19:00,75.3,64.0,30.09,ENE,63,9.0,12.0,69,0.00,,,0.00,0,weatherlink.com 1.10,2013-02-12 04:19:00,
2013-02-12 00:34:00,75.3,64.0,30.08,ENE,62,7.0,12.0,69,0.00,,,0.00,0,weatherlink.com 1.10,2013-02-12 04:34:00,
2013-02-12 00:49:00,75.3,63.0,30.08,ENE,62,5.0,16.0,65,0.00,,,0.00,0,weatherlink.com 1.10,2013-02-12 04:49:00,
2013-02-12 01:04:00,75.5,64.0,30.08,East,86,6.0,15.0,68,0.00,,,0.00,0,weatherlink.com 1.10,2013-02-12 05:04:00,
2013-02-12 01:19:00,75.3,64.0,30.07,ENE,71,5.0,14.0,68,0.00,,,0.00,0,weatherlink.com 1.10,2013-02-12 05:19:00,
2013-02-12 01:34:00,75.3,64.0,30.07,ENE,70,11.0,16.0,67,0.00,,,0.00,0,weatherlink.com 1.10,2013-02-12 05:34:00,
2013-02-12 01:49:00,75.3,65.0,30.07,ENE,65,3.0,16.0,70,0.00,,,0.00,0,weatherlink.com 1.10,2013-02-12 05:49:00,
2013-02-12 02:04:00,75.3,64.0,30.06,East,85,7.0,15.0,68,0.00,,,0.00,0,weatherlink.com 1.10,2013-02-12 06:04:00,
2013-02-12 02:19:00,75.3,65.0,30.06,ENE,63,10.0,17.0,70,0.00,,,0.00,0,weatherlink.com 1.10,2013-02-12 06:19:00,
2013-02-12 02:34:00,75.4,65.0,30.06,NE,43,7.0,17.0,69,0.00,,,0.00,0,weatherlink.com 1.10,2013-02-12 06:34:00,
2013-02-12 02:49:00,75.3,64.0,30.06,ENE,68,4.0,16.0,67,0.00,,,0.00,0,weatherlink.com 1.10,2013-02-12 06:49:00,
2013-02-12 03:04:00,75.1,64.0,30.05,North,9,7.0,17.0,68,0.00,,,0.00,0,weatherlink.com 1.10,2013-02-12 07:04:00,
2013-02-12 03:19:00,75.0,62.0,30.05,NE,42,11.0,14.0,65,0.00,,,0.00,0,weatherlink.com 1.10,2013-02-12 07:19:00,
2013-02-12 03:34:00,74.9,64.0,30.05,East,80,8.0,18.0,68,0.00,,,0.00,0,weatherlink.com 1.10,2013-02-12 07:34:00,
2013-02-12 03:49:00,74.8,64.0,30.05,ENE,67,4.0,9.0,68,0.00,,,0.00,0,weatherlink.com 1.10,2013-02-12 07:49:00,
2013-02-12 04:04:00,74.9,63.0,30.05,East,96,1.0,12.0,67,0.00,,,0.00,0,weatherlink.com 1.10,2013-02-12 08:04:00,
2013-02-12 04:19:00,74.9,62.0,30.05,ENE,60,3.0,13.0,64,0.00,,,0.00,0,weatherlink.com 1.10,2013-02-12 08:19:00,
2013-02-12 04:34:00,75.0,61.0,30.05,ENE,76,3.0,10.0,62,0.00,,,0.00,0,weatherlink.com 1.10,2013-02-12 08:34:00,
2013-02-12 04:49:00,75.0,62.0,30.04,ENE,66,3.0,11.0,65,0.00,,,0.00,0,weatherlink.com 1.10,2013-02-12 08:49:00,
2013-02-12 05:04:00,74.9,63.0,30.04,NE,51,5.0,8.0,66,0.00,,,0.00,0,weatherlink.com 1.10,2013-02-12 09:04:00,
2013-02-12 05:19:00,74.9,62.0,30.04,East,82,6.0,13.0,65,0.00,,,0.00,0,weatherlink.com 1.10,2013-02-12 09:19:00,
2013-02-12 05:34:00,75.0,63.0,30.04,ENE,58,8.0,15.0,66,0.00,,,0.00,0,weatherlink.com 1.10,2013-02-12 09:34:00,
2013-02-12 05:49:00,75.1,62.0,30.04,ENE,74,2.0,15.0,64,0.00,,,0.00,0,weatherlink.com 1.10,2013-02-12 09:49:00,
2013-02-12 06:04:00,75.1,63.0,30.04,ENE,76,5.0,15.0,67,0.00,,,0.00,0,weatherlink.com 1.10,2013-02-12 10:04:00,
2013-02-12 06:20:00,75.0,63.0,30.05,NE,42,7.0,15.0,66,0.00,,,0.00,0,weatherlink.com 1.10,2013-02-12 10:20:00,
2013-02-12 06:34:00,75.1,62.0,30.05,East,80,5.0,15.0,65,0.00,,,0.00,0,weatherlink.com 1.10,2013-02-12 10:34:00,
2013-02-12 06:49:00,74.9,63.0,30.05,East,79,6.0,14.0,67,0.00,,,0.00,0,weatherlink.com 1.10,2013-02-12 10:49:00,
2013-02-12 07:04:00,75.0,64.0,30.05,NE,40,4.0,15.0,69,0.00,,,0.00,12,weatherlink.com 1.10,2013-02-12 11:04:00,
2013-02-12 07:19:00,75.5,64.0,30.05,NE,49,9.0,15.0,68,0.00,,,0.00,81,weatherlink.com 1.10,2013-02-12 11:19:00,
2013-02-12 07:34:00,75.9,64.0,30.06,ENE,60,11.0,15.0,67,0.00,,,0.00,63,weatherlink.com 1.10,2013-02-12 11:34:00,
2013-02-12 07:49:00,76.1,64.0,30.06,ENE,61,7.0,18.0,66,0.00,,,0.00,53,weatherlink.com 1.10,2013-02-12 11:49:00,
2013-02-12 08:04:00,76.4,65.0,30.07,NE,49,7.0,15.0,67,0.00,,,0.00,236,weatherlink.com 1.10,2013-02-12 12:04:00,
2013-02-12 08:20:00,76.4,64.0,30.07,NE,48,8.0,16.0,66,0.00,,,0.00,113,weatherlink.com 1.10,2013-02-12 12:20:00,
2013-02-12 08:35:00,77.1,64.0,30.07,ENE,62,4.0,15.0,64,0.00,,,0.00,338,weatherlink.com 1.10,2013-02-12 12:35:00,
2013-02-12 08:50:00,77.3,64.0,30.07,East,80,5.0,13.0,64,0.00,,,0.00,367,weatherlink.com 1.10,2013-02-12 12:50:00,
2013-02-12 09:05:00,78.1,64.0,30.07,East,85,7.0,17.0,62,0.00,,,0.00,434,weatherlink.com 1.10,2013-02-12 13:05:00,
2013-02-12 09:20:00,78.5,64.0,30.08,NE,55,5.0,16.0,62,0.00,,,0.00,501,weatherlink.com 1.10,2013-02-12 13:20:00,
2013-02-12 09:35:00,79.7,64.0,30.08,ENE,57,8.0,16.0,58,0.00,,,0.00,559,weatherlink.com 1.10,2013-02-12 13:35:00,
2013-02-12 09:50:00,80.3,64.0,30.09,East,80,11.0,15.0,57,0.00,,,0.00,624,weatherlink.com 1.10,2013-02-12 13:50:00,
2013-02-12 10:05:00,80.4,63.0,30.09,East,99,6.0,15.0,55,0.00,,,0.00,654,weatherlink.com 1.10,2013-02-12 14:05:00,
2013-02-12 10:20:00,81.0,64.0,30.09,East,95,9.0,16.0,56,0.00,,,0.00,714,weatherlink.com 1.10,2013-02-12 14:20:00,
2013-02-12 10:35:00,80.7,66.0,30.09,ENE,77,14.0,16.0,62,0.00,,,0.00,772,weatherlink.com 1.10,2013-02-12 14:35:00,
2013-02-12 10:50:00,81.2,67.0,30.09,ENE,61,8.0,14.0,63,0.00,,,0.00,232,weatherlink.com 1.10,2013-02-12 14:50:00,
2013-02-12 11:05:00,81.4,68.0,30.08,ENE,74,4.0,16.0,63,0.00,,,0.00,104,weatherlink.com 1.10,2013-02-12 15:05:00,
2013-02-12 11:35:00,81.8,67.0,30.08,East,92,6.0,17.0,62,0.00,,,0.00,427,weatherlink.com 1.10,2013-02-12 15:35:00,
2013-02-12 11:51:00,82.3,66.0,30.07,East,94,6.0,18.0,59,0.00,,,0.00,807,weatherlink.com 1.10,2013-02-12 15:51:00,
2013-02-12 12:05:00,82.4,66.0,30.08,ESE,103,10.0,18.0,58,0.00,,,0.00,842,weatherlink.com 1.10,2013-02-12 16:05:00,
2013-02-12 12:21:00,82.5,66.0,30.07,ENE,73,9.0,17.0,57,0.00,,,0.00,863,weatherlink.com 1.10,2013-02-12 16:21:00,
2013-02-12 12:35:00,82.2,65.0,30.07,East,92,10.0,18.0,56,0.00,,,0.00,863,weatherlink.com 1.10,2013-02-12 16:35:00,
2013-02-12 12:50:00,82.5,65.0,30.06,East,80,9.0,18.0,55,0.00,,,0.00,853,weatherlink.com 1.10,2013-02-12 16:50:00,
2013-02-12 13:20:00,82.7,65.0,30.05,ENE,74,13.0,18.0,56,0.00,,,0.00,842,weatherlink.com 1.10,2013-02-12 17:20:00,
2013-02-12 13:36:00,82.7,66.0,30.05,NE,56,6.0,15.0,57,0.00,,,0.00,831,weatherlink.com 1.10,2013-02-12 17:36:00,
2013-02-12 13:50:00,82.8,66.0,30.04,ENE,78,5.0,14.0,58,0.00,,,0.00,805,weatherlink.com 1.10,2013-02-12 17:50:00,
2013-02-12 14:35:00,83.3,67.0,30.03,NNE,28,3.0,16.0,58,0.00,,,0.00,780,weatherlink.com 1.10,2013-02-12 18:35:00,
2013-02-12 14:51:00,82.8,66.0,30.03,East,94,7.0,12.0,57,0.00,,,0.00,765,weatherlink.com 1.10,2013-02-12 18:51:00,
2013-02-12 15:06:00,82.6,67.0,30.02,ENE,71,11.0,17.0,60,0.00,,,0.00,652,weatherlink.com 1.10,2013-02-12 19:06:00,
2013-02-12 15:21:00,82.5,68.0,30.02,NNE,22,9.0,14.0,61,0.00,,,0.00,454,weatherlink.com 1.10,2013-02-12 19:21:00,
2013-02-12 15:36:00,82.0,67.0,30.02,NE,48,7.0,17.0,61,0.00,,,0.00,541,weatherlink.com 1.10,2013-02-12 19:36:00,
2013-02-12 15:51:00,81.9,67.0,30.02,ENE,78,3.0,15.0,61,0.00,,,0.00,311,weatherlink.com 1.10,2013-02-12 19:51:00,
2013-02-12 16:06:00,81.6,67.0,30.02,ENE,72,13.0,14.0,61,0.00,,,0.00,390,weatherlink.com 1.10,2013-02-12 20:06:00,
2013-02-12 16:21:00,81.0,67.0,30.02,NE,56,6.0,16.0,63,0.00,,,0.00,390,weatherlink.com 1.10,2013-02-12 20:21:00,
2013-02-12 16:36:00,80.7,68.0,30.02,East,86,10.0,14.0,65,0.00,,,0.00,209,weatherlink.com 1.10,2013-02-12 20:36:00,
2013-02-12 16:51:00,79.9,67.0,30.02,ENE,61,7.0,17.0,64,0.00,,,0.00,105,weatherlink.com 1.10,2013-02-12 20:51:00,
2013-02-12 17:06:00,79.4,66.0,30.02,NE,40,11.0,16.0,64,0.00,,,0.00,67,weatherlink.com 1.10,2013-02-12 21:06:00,
2013-02-12 17:21:00,79.1,66.0,30.02,ENE,60,7.0,16.0,64,0.00,,,0.00,79,weatherlink.com 1.10,2013-02-12 21:21:00,
2013-02-12 17:36:00,78.7,65.0,30.02,ENE,60,7.0,15.0,63,0.00,,,0.00,63,weatherlink.com 1.10,2013-02-12 21:36:00,
2013-02-12 17:51:00,78.4,66.0,30.02,ENE,57,8.0,12.0,65,0.00,,,0.00,47,weatherlink.com 1.10,2013-02-12 21:51:00,
2013-02-12 18:06:00,78.0,65.0,30.02,NE,49,9.0,15.0,64,0.00,,,0.00,32,weatherlink.com 1.10,2013-02-12 22:06:00,
2013-02-12 18:21:00,77.7,66.0,30.02,East,79,10.0,14.0,67,0.00,,,0.00,5,weatherlink.com 1.10,2013-02-12 22:21:00,
2013-02-12 18:36:00,77.3,65.0,30.02,East,93,10.0,14.0,66,0.00,,,0.00,0,weatherlink.com 1.10,2013-02-12 22:36:00,
2013-02-12 18:51:00,77.1,65.0,30.02,ENE,57,5.0,12.0,67,0.00,,,0.00,0,weatherlink.com 1.10,2013-02-12 22:51:00,
2013-02-12 19:06:00,77.0,65.0,30.02,NE,52,10.0,11.0,67,0.00,,,0.00,0,weatherlink.com 1.10,2013-02-12 23:06:00,
2013-02-12 19:21:00,76.8,66.0,30.02,NE,38,7.0,14.0,69,0.00,,,0.00,0,weatherlink.com 1.10,2013-02-12 23:21:00,
2013-02-12 19:36:00,76.8,66.0,30.03,East,86,5.0,13.0,69,0.00,,,0.00,0,weatherlink.com 1.10,2013-02-12 23:36:00,
2013-02-12 19:51:00,76.6,65.0,30.03,ESE,116,8.0,15.0,68,0.00,,,0.00,0,weatherlink.com 1.10,2013-02-12 23:51:00,
2013-02-12 20:06:00,76.6,66.0,30.04,ENE,75,3.0,11.0,69,0.00,,,0.00,0,weatherlink.com 1.10,2013-02-13 00:06:00,
2013-02-12 20:21:00,76.5,66.0,30.04,East,81,8.0,16.0,69,0.00,,,0.00,0,weatherlink.com 1.10,2013-02-13 00:21:00,
2013-02-12 20:36:00,76.5,66.0,30.04,East,97,9.0,14.0,70,0.00,,,0.00,0,weatherlink.com 1.10,2013-02-13 00:36:00,
2013-02-12 20:51:00,76.4,66.0,30.05,ENE,60,7.0,14.0,69,0.00,,,0.00,0,weatherlink.com 1.10,2013-02-13 00:51:00,
2013-02-12 21:36:00,76.5,66.0,30.05,ENE,71,9.0,14.0,70,0.00,,,0.00,0,weatherlink.com 1.10,2013-02-13 01:36:00,
2013-02-12 21:51:00,76.5,66.0,30.05,East,80,6.0,14.0,70,0.00,,,0.00,0,weatherlink.com 1.10,2013-02-13 01:51:00,
2013-02-12 22:06:00,76.4,66.0,30.06,East,83,7.0,11.0,71,0.00,,,0.00,0,weatherlink.com 1.10,2013-02-13 02:06:00,
2013-02-12 22:21:00,76.0,66.0,30.06,ESE,114,4.0,9.0,71,0.00,,,0.00,0,weatherlink.com 1.10,2013-02-13 02:21:00,
2013-02-12 22:36:00,75.6,66.0,30.06,ESE,110,3.0,9.0,71,0.00,,,0.00,0,weatherlink.com 1.10,2013-02-13 02:36:00,
2013-02-12 22:51:00,75.1,66.0,30.06,SE,124,3.0,7.0,72,0.00,,,0.00,0,weatherlink.com 1.10,2013-02-13 02:51:00,
2013-02-12 23:06:00,74.8,66.0,30.06,ESE,123,3.0,7.0,73,0.00,,,0.00,0,weatherlink.com 1.10,2013-02-13 03:06:00,
2013-02-12 23:21:00,74.9,66.0,30.06,East,88,2.0,7.0,73,0.00,,,0.00,0,weatherlink.com 1.10,2013-02-13 03:21:00,
2013-02-12 23:36:00,74.8,66.0,30.05,East,87,0.0,5.0,73,0.00,,,0.00,0,weatherlink.com 1.10,2013-02-13 03:36:00,
2013-02-12 23:51:00,74.4,66.0,30.05,East,87,0.0,5.0,74,0.00,,,0.00,0,weatherlink.com 1.10,2013-02-13 03:51:00,